Flag for U.S.A. Weather past 2 weeks in Sunrise, Florida, U.S.A.

Now
85 °F

Passing clouds.


Feels Like: 95 °F
Forecast: 81 / 92 °F
Wind: 10 mph from Southeast

Location: Fort Lauderdale Executive Airport

Current Time: Aug 30, 2014 at 8:24:20 AM

Latest Report: Aug 30, 2014 at 7:53 AM


Visibility: 10 mi

Pressure: 30.11 "Hg

Humidity: 77%

Dew point: 77 °F

Location of SunriseLocation

Historic Weather in Sunrise — Graph

°F

Sunrise temperature yesterday

Maximum temperature yesterday: 93 °F (at 1:53 PM)
Minimum temperature yesterday: 80 °F (at 4:53 AM)
Average temperature yesterday: 86 °F

Past Weeks' High & Low Weather Summary

 TemperatureHumidityPressure
High93 °F (Aug 20, 3:53 PM)100% (Aug 15, 6:53 AM)30.13 "Hg (Aug 15, 6:53 AM)
Low74 °F (Aug 15, 2:02 PM)52% (Aug 24, 12:53 PM)29.73 "Hg (Aug 25, 3:53 PM)
Average85 °F76%29.99 "Hg
* Reported Aug 15 6:53 AM — Aug 30 6:53 AM, Sunrise, Weather by CustomWeather, © 2014

Note: Actual official high and low records may vary slightly from our data, if they occured in-between our weather recording intervals... More about our weather records

Advertising

Sunrise weather history for previous 24 hours

 ConditionsComfort  
Time TempWeatherWind HumidityBarometerVisibility
6:53 AM
Aug 30
84 °FClear.7 mph80%30.09 "Hg10 mi
5:53 AM84 °FClear.8 mph80%30.07 "Hg10 mi
4:53 AM84 °FClear.7 mph83%30.06 "Hg10 mi
3:53 AM84 °FPassing clouds.8 mph77%30.06 "Hg10 mi
2:53 AM84 °FClear.6 mph83%30.09 "Hg10 mi
1:53 AM84 °FClear.8 mph83%30.10 "Hg10 mi
12:53 AM85 °FClear.8 mph80%30.11 "Hg10 mi
11:53 PM
Aug 29
85 °FPassing clouds.7 mph80%30.11 "Hg10 mi
10:53 PM85 °FClear.6 mph80%30.10 "Hg10 mi
9:53 PM86 °FPassing clouds.9 mph77%30.08 "Hg10 mi
8:53 PM86 °FClear.9 mph75%30.06 "Hg10 mi
7:53 PM86 °FPassing clouds.9 mph77%30.05 "Hg10 mi
6:53 PM88 °FSunny.12 mph70%30.03 "Hg10 mi
5:53 PM89 °FPassing clouds.12 mph68%30.02 "Hg10 mi
4:53 PM91 °FSunny.15 mph64%30.01 "Hg10 mi
2:53 PM92 °FPassing clouds.13 mph58%30.03 "Hg10 mi
1:53 PM93 °FSunny.14 mph56%30.05 "Hg10 mi
12:53 PM91 °FScattered clouds.14 mph66%30.05 "Hg10 mi
11:53 AM89 °FPassing clouds.14 mph70%30.06 "Hg10 mi
10:53 AM90 °FScattered clouds.12 mph66%30.06 "Hg10 mi
9:53 AM87 °FScattered clouds.8 mph77%30.05 "Hg10 mi
8:53 AM86 °FScattered clouds.7 mph80%30.05 "Hg10 mi
Weather by CustomWeather, © 2014

See weather overviewHow to use our weather pages